This demonstration page uses our WeatherBlox Daily Observations layout. Learn more.

Left ArrowRight Arrow

38.83388, -104.82136

Hourly Observations for January 8, 2021

Temp ( °F °C ) Dew Point ( °F °C ) Humidity (%) Winds ( mph kmh ) Pressure ( in mb ) Visibility ( mi km ) Precip ( " mm )
12:58 am 00:58 Clear 28 -2 17 -8.5 61 61 NW 7 11 29.92 1013 10 16 0.00 0.00
1:58 am 01:58 Clear 28 -2.1 13 -10.5 53 53 Calm 29.92 1013 10 16 0.00 0.00
2:58 am 02:58 Mostly Cloudy 29 -1.4 11 -11.6 46 46 WNW 7 11 29.93 1014 10 16 0.00 0.00
3:58 am 03:58 Mostly Cloudy 30 -0.9 11 -11.9 43 43 WNW 7 11 29.92 1013 10 16 0.00 0.00
4:58 am 04:58 Mostly Cloudy 29 -1.4 12 -11.2 48 48 WNW 7 11 29.95 1014 10 16 0.00 0.00
5:58 am 05:58 Mostly Cloudy 30 -1.2 6 -14.7 35 35 NW 3 6 29.98 1015 10 16 0.00 0.00
6:58 am 06:58 Mostly Cloudy 29 -1.5 6 -14.2 38 38 Calm 30.00 1016 10 16 0.00 0.00
7:58 am 07:58 Mostly Sunny 28 -2.3 7 -13.9 41 41 Calm 30.02 1017 10 16 0.00 0.00
8:58 am 08:58 Mostly Cloudy 33 0.6 8 -13.6 34 34 SE 5 7 30.03 1017 10 16 0.00 0.00
9:56 am 09:56 Sunny 35 1.7 10 -12 36 36 ESE 8 13 30.04 1017 10 16 0.00 0.00
10:56 am 10:56 Sunny 35 1.7 13 -10.7 40 40 ESE 14 22 29.98 1015 10 16 0.00 0.00
11:56 am 11:56 Sunny 34 1.3 10 -12.1 36 36 SE 13 20 29.96 1015 10 16 0.00 0.00
12:56 pm 12:56 Sunny 35 1.4 12 -11 40 40 SE 10 17 29.93 1013 10 16 0.00 0.00
1:56 pm 13:56 Sunny 35 1.8 13 -10.5 40 40 SSE 10 17 29.89 1012 10 16 0.00 0.00
2:56 pm 14:56 Sunny 33 0.7 15 -9.5 47 47 SSE 8 13 29.89 1012 10 16 0.00 0.00
3:56 pm 15:56 Sunny 32 0 17 -8.6 53 53 SSE 12 19 29.89 1012 10 16 0.00 0.00
4:58 pm 16:58 Clear 30 -0.9 15 -9.2 54 54 S 16 26 29.90 1013 10 16 0.00 0.00
5:56 pm 17:56 Partly Cloudy 31 -0.8 14 -10.2 49 49 S 16 26 29.91 1013 10 16 0.00 0.00
6:56 pm 18:56 Mostly Cloudy 29 -1.8 13 -10.7 51 51 S 15 24 29.93 1014 10 16 0.00 0.00
7:56 pm 19:56 Mostly Cloudy 29 -1.9 13 -10.7 51 51 S 10 17 29.93 1014 10 16 0.00 0.00
8:56 pm 20:56 Mostly Cloudy 29 -1.6 13 -10.4 52 52 S 15 24 29.90 1013 10 16 0.00 0.00
9:56 pm 21:56 Partly Cloudy 29 -1.4 14 -9.8 53 53 SSE 10 17 29.88 1012 10 16 0.00 0.00
10:56 pm 22:56 Partly Cloudy 25 -4 15 -9.7 65 65 S 12 19 29.89 1012 10 16 0.00 0.00
11:26 pm 23:26 Mostly Cloudy 25 -4 18 -8 74 74 S 14 22 29.90 1013 10 16 0.00 0.00
11:46 pm 23:46 Mostly Cloudy 25 -4 18 -8 74 74 SSE 14 22 29.88 1012 10 16 0.00 0.00
11:56 pm 23:56 Mostly Cloudy 24 -4.4 19 -7.2 81 81 SSE 15 24 29.88 1012 10 16 0.00 0.00

Powered by AerisWeather